Date,TemperatureHighF,TemperatureAvgF,TemperatureLowF,DewpointHighF,DewpointAvgF,DewpointLowF,HumidityHigh,HumidityAvg,HumidityLow,PressureMaxIn,PressureMinIn,WindSpeedMaxMPH,WindSpeedAvgMPH,GustSpeedMaxMPH,PrecipitationSumIn
2013-1-1,50.2,47.1,42.6,49.1,38.8,24.3,96,75,41,29.78,29.60,0,-999,0,0.00
2013-1-2,49.5,45.6,41.2,48.4,41.3,35.1,96,85,68,29.84,29.57,0,-999,0,0.00
2013-1-3,46.9,40.8,31.1,36.7,34.0,27.5,86,77,60,29.93,29.81,0,-999,0,0.00
2013-1-4,51.8,38.4,26.4,30.9,24.3,17.6,93,61,35,29.99,29.81,0,-999,0,0.00
2013-1-5,50.9,38.1,27.3,28.8,22.6,17.6,72,55,37,30.07,29.93,0,-999,0,0.00
2013-1-6,51.3,43.1,35.4,35.6,32.2,25.0,86,66,50,29.93,29.75,0,-999,0,0.00
2013-1-7,54.9,38.9,28.9,36.5,28.6,25.9,93,69,39,30.07,29.84,0,-999,0,0.00
2013-1-8,55.8,42.4,30.2,37.8,33.2,25.7,88,71,46,30.10,29.99,0,-999,0,0.00
2013-1-9,67.8,50.3,36.0,48.2,41.1,32.9,93,73,44,30.10,30.01,0,-999,0,0.00
2013-1-10,67.5,53.4,45.9,48.6,42.2,32.5,93,69,39,30.19,30.07,0,-999,0,0.00
2013-1-11,51.3,47.8,42.3,49.3,41.0,28.6,98,80,45,30.10,29.81,0,-999,0,0.00
2013-1-12,70.9,57.0,49.1,63.0,54.3,48.2,98,91,70,29.84,29.78,0,-999,0,0.00
2013-1-13,75.4,63.0,53.2,63.7,55.8,52.0,98,80,51,29.84,29.75,0,-999,0,0.00
2013-1-14,69.1,64.3,59.9,61.3,58.1,54.3,91,81,72,29.84,29.75,0,-999,0,0.00
2013-1-15,65.5,48.1,45.9,59.5,45.5,43.5,98,91,77,29.90,29.72,0,-999,0,0.00
2013-1-16,50.4,46.7,44.1,49.8,46.1,43.3,98,98,97,29.75,29.63,0,-999,0,0.00
2013-1-17,50.9,46.9,33.4,50.4,45.7,31.5,98,96,87,29.81,29.57,0,-999,0,0.00
2013-1-18,48.6,36.9,29.1,35.1,28.6,23.0,98,75,40,30.19,29.81,0,-999,0,0.00
2013-1-19,54.1,38.8,26.4,32.5,26.6,22.5,90,65,33,30.16,29.81,0,-999,0,0.00
2013-1-20,65.3,48.3,37.4,36.5,31.1,26.8,70,53,32,29.81,29.66,0,-999,0,0.00
2013-1-21,60.4,44.8,29.8,36.1,26.5,17.8,87,53,28,29.78,29.54,0,-999,0,0.00
2013-1-22,42.3,34.9,26.1,18.5,9.0,3.2,41,34,26,29.93,29.63,0,-999,0,0.00
2013-1-23,41.2,30.4,19.8,13.8,8.8,2.1,57,40,30,30.04,29.72,0,-999,0,0.00
2013-1-24,39.6,32.6,25.0,20.7,12.0,3.4,61,43,30,30.16,29.60,0,-999,0,0.00
2013-1-25,27.9,25.3,22.1,24.3,11.5,2.5,88,58,37,30.16,29.78,0,-999,0,0.00
2013-1-26,40.5,31.7,27.3,32.0,25.8,22.5,89,79,57,30.04,29.72,0,-999,0,0.00
2013-1-27,43.0,33.1,24.6,27.5,23.9,19.6,90,71,45,30.25,30.04,0,-999,0,0.00
2013-1-28,51.4,43.1,33.6,44.1,33.5,24.8,87,69,53,30.13,29.87,0,-999,0,0.00
2013-1-29,72.0,58.4,46.6,55.9,49.7,44.1,95,75,48,29.90,29.75,0,-999,0,0.00
2013-1-30,71.6,67.2,60.8,62.6,60.0,55.0,91,78,64,29.75,29.13,0,-999,0,0.00
2013-1-31,63.9,47.9,35.1,59.5,29.0,17.8,87,50,30,29.69,29.16,0,-999,0,0.00
2013-2-1,41.4,36.4,26.1,24.3,13.4,4.6,53,39,29,30.04,29.54,0,-999,0,0.00
2013-2-2,45.3,34.4,20.5,32.7,11.6,4.6,69,39,29,30.07,29.69,0,-999,0,0.00
2013-2-3,50.7,42.6,32.9,33.4,27.0,19.0,78,56,37,29.69,29.54,0,-999,0,0.00
2013-2-4,48.9,38.9,27.1,24.8,20.7,16.9,74,49,33,29.81,29.66,0,-999,0,0.00
2013-2-5,61.5,47.5,38.8,32.9,28.5,22.8,69,49,33,29.69,29.54,0,-999,0,0.00
2013-2-6,64.8,46.1,31.6,37.9,27.7,21.9,88,54,25,29.93,29.63,0,-999,0,0.00
2013-2-7,49.1,43.2,37.2,41.5,34.3,27.7,93,71,52,29.99,29.63,0,-999,0,0.00
2013-2-8,55.8,46.1,39.9,44.1,38.7,24.4,96,77,48,29.72,29.48,0,-999,0,0.00
2013-2-9,54.0,41.1,30.2,26.4,21.7,18.1,76,48,28,30.01,29.69,0,-999,0,0.00
2013-2-10,55.6,40.5,26.1,36.9,21.9,18.0,77,51,28,30.16,29.87,0,-999,0,0.00
2013-2-11,63.0,57.0,45.5,59.4,53.3,37.4,98,88,73,29.87,29.60,0,-999,0,0.00
2013-2-12,63.7,54.0,46.2,53.1,36.0,27.1,92,55,27,29.75,29.57,0,-999,0,0.00
2013-2-13,49.1,46.5,43.5,46.4,42.2,34.0,95,85,58,29.63,29.31,0,-999,0,0.00
2013-2-14,53.6,42.1,31.6,36.5,30.7,27.0,94,66,39,29.72,29.51,0,-999,0,0.00
2013-2-15,64.0,44.9,30.0,41.0,30.8,26.6,94,62,31,29.78,29.60,0,-999,0,0.00
2013-2-16,44.8,37.4,32.0,33.6,30.0,24.4,90,76,54,29.66,29.51,0,-999,0,0.00
2013-2-17,38.1,31.5,24.4,24.4,12.8,8.2,74,47,31,29.93,29.57,0,-999,0,0.00
2013-2-18,52.5,36.1,19.2,21.9,15.9,10.2,76,47,27,30.07,29.90,0,-999,0,0.00
2013-2-19,52.2,44.0,35.2,50.0,36.2,21.4,95,75,48,29.90,29.51,0,-999,0,0.00
2013-2-20,53.6,41.1,29.1,35.8,22.4,16.5,94,51,27,29.81,29.63,0,-999,0,0.00
2013-2-21,56.5,41.7,26.1,23.5,18.8,14.0,66,41,26,29.90,29.75,0,-999,0,0.00
2013-2-22,43.5,37.0,33.3,34.0,28.7,18.1,90,74,36,30.01,29.78,0,-999,0,0.00
2013-2-23,43.7,40.2,36.3,43.0,38.8,33.6,97,95,90,29.78,29.48,0,-999,0,0.00
2013-2-24,63.0,49.5,36.7,48.9,37.8,27.5,98,69,32,29.72,29.45,0,-999,0,0.00
2013-2-25,43.5,38.3,34.0,29.5,21.2,16.5,78,51,39,29.87,29.72,0,-999,0,0.00
2013-2-26,57.7,45.5,36.1,57.0,39.9,20.5,98,83,50,29.78,29.22,0,-999,0,0.00
2013-2-27,61.0,50.0,41.9,45.1,38.6,32.4,97,69,37,29.48,29.31,0,-999,0,0.00
2013-2-28,50.7,41.9,33.1,36.5,29.8,23.0,90,64,37,29.51,29.36,0,-999,0,0.00
2013-3-1,52.5,40.4,29.5,31.3,25.5,21.6,82,57,37,29.57,29.48,0,-999,0,0.00
2013-3-2,52.2,39.0,27.7,30.6,22.5,16.0,80,53,37,29.60,29.48,0,-999,0,0.00
2013-3-3,49.8,37.2,26.8,23.9,17.2,12.9,61,45,33,29.63,29.51,0,-999,0,0.00
2013-3-4,50.4,37.7,25.5,18.9,15.4,10.6,55,41,28,29.78,29.63,0,-999,0,0.00
2013-3-5,50.2,43.0,35.4,43.3,32.4,17.2,94,68,38,29.75,29.25,0,-999,0,0.00
2013-3-6,47.5,43.1,37.9,46.8,30.2,21.9,97,63,42,29.69,29.19,0,-999,0,0.00
2013-3-7,54.5,42.8,32.5,29.3,25.1,20.1,74,51,37,29.87,29.66,0,-999,0,0.00
2013-3-8,56.1,43.7,28.6,27.1,22.5,19.6,74,45,28,29.93,29.78,0,-999,0,0.00
2013-3-9,63.7,46.4,30.2,31.6,24.7,19.9,72,45,25,30.01,29.90,0,-999,0,0.00
2013-3-10,68.0,50.0,32.2,36.7,26.6,20.7,79,46,22,29.99,29.87,0,-999,0,0.00
2013-3-11,70.3,55.6,38.8,51.1,39.7,22.8,77,56,38,29.90,29.63,0,-999,0,0.00
2013-3-12,71.6,62.1,50.9,61.7,51.7,28.6,96,71,40,29.63,29.45,0,-999,0,0.00
2013-3-13,61.0,49.3,35.6,33.6,27.2,21.0,75,45,27,29.75,29.60,0,-999,0,0.00
2013-3-14,54.3,48.3,36.1,23.2,19.5,16.0,45,32,27,29.84,29.75,0,-999,0,0.00
2013-3-15,63.9,47.2,28.6,32.2,24.5,15.8,68,43,28,29.84,29.57,0,-999,0,0.00
2013-3-16,77.9,63.0,50.9,45.1,39.4,29.7,55,43,30,29.57,29.36,0,-999,0,0.00
2013-3-17,63.1,52.7,41.7,52.0,42.0,34.9,90,68,49,29.84,29.51,0,-999,0,0.00
2013-3-18,44.6,41.2,38.5,41.4,38.3,35.8,97,89,83,29.87,29.54,0,-999,0,0.00
2013-3-19,67.5,52.6,41.2,48.0,35.3,18.1,98,61,24,29.69,29.48,0,-999,0,0.00
2013-3-20,56.8,47.6,39.7,22.3,17.1,11.3,47,30,25,29.78,29.45,0,-999,0,0.00
2013-3-21,50.9,41.1,32.4,25.7,17.4,8.1,62,39,28,29.63,29.39,0,-999,0,0.00
2013-3-22,53.1,39.3,24.6,21.0,14.5,7.9,52,37,26,29.75,29.60,0,-999,0,0.00
2013-3-23,54.9,45.7,37.9,26.8,23.5,19.8,59,42,30,29.72,29.57,0,-999,0,0.00
2013-3-24,41.2,38.9,35.2,37.8,33.1,24.8,93,80,59,29.60,29.25,0,-999,0,0.00
2013-3-25,50.9,41.6,36.7,38.3,28.6,19.2,90,64,38,29.48,29.22,0,-999,0,0.00
2013-3-26,54.5,43.2,33.6,27.7,23.3,19.6,62,46,36,29.75,29.48,0,-999,0,0.00
2013-3-27,55.8,43.5,33.4,26.2,21.5,17.1,63,43,29,29.87,29.75,0,-999,0,0.00
2013-3-28,58.5,45.1,32.0,26.6,21.9,18.1,62,41,27,29.96,29.81,0,-999,0,0.00
2013-3-29,62.4,46.4,29.5,30.6,24.0,18.9,71,44,26,29.99,29.84,0,-999,0,0.00
2013-3-30,68.9,54.4,40.5,40.6,32.5,26.8,67,45,25,29.93,29.75,0,-999,0,0.00
2013-3-31,68.4,57.6,48.9,57.7,49.3,38.7,96,75,56,29.78,29.51,0,-999,0,0.00
2013-4-1,73.2,61.8,54.3,55.9,46.0,34.7,97,63,29,29.66,29.51,0,-999,0,0.00
2013-4-2,62.2,51.1,37.8,34.7,27.1,22.3,64,41,26,29.81,29.66,0,-999,0,0.00
2013-4-3,62.2,51.1,42.3,29.1,23.6,19.0,55,35,24,29.96,29.81,0,-999,0,0.00
2013-4-4,49.3,43.2,39.7,37.8,29.4,20.1,92,61,39,30.01,29.57,0,-999,0,0.00
2013-4-5,62.6,48.8,39.9,47.3,41.3,37.8,94,78,48,29.69,29.51,0,-999,0,0.00
2013-4-6,66.6,53.1,39.2,40.5,31.8,23.7,90,51,25,29.96,29.69,0,-999,0,0.00
2013-4-7,72.9,57.0,37.2,44.8,35.8,28.8,75,47,29,29.96,29.78,0,-999,0,0.00
2013-4-8,79.0,67.0,54.3,55.6,49.1,44.4,88,56,33,29.87,29.75,0,-999,0,0.00
2013-4-9,86.4,72.3,58.8,58.8,53.3,48.6,90,55,30,29.90,29.78,0,-999,0,0.00
2013-4-10,88.9,75.0,62.6,59.5,55.0,50.9,82,53,30,29.81,29.66,0,-999,0,0.00
2013-4-11,82.9,72.4,62.6,64.6,57.5,53.1,88,62,38,29.72,29.51,0,-999,0,0.00
2013-4-12,80.8,72.1,64.2,68.9,61.0,48.7,94,70,40,29.51,29.36,0,-999,0,0.00
2013-4-13,75.7,64.9,52.9,48.7,39.0,34.9,58,40,25,29.69,29.48,0,-999,0,0.00
2013-4-14,83.3,65.3,46.2,51.4,41.0,35.4,83,47,20,29.81,29.69,0,-999,0,0.00
2013-4-15,71.1,65.7,59.7,55.6,52.0,45.9,81,62,49,29.90,29.72,0,-999,0,0.00
2013-4-16,77.9,65.4,57.2,61.0,55.5,52.7,91,72,46,29.99,29.90,0,-999,0,0.00
2013-4-17,82.8,70.4,59.4,61.7,59.0,55.8,93,69,44,29.93,29.84,0,-999,0,0.00
2013-4-18,80.6,70.7,61.2,61.7,56.4,51.6,87,62,40,29.90,29.75,0,-999,0,0.00
2013-4-19,83.1,71.6,65.5,65.3,62.7,56.3,95,75,47,29.75,29.45,0,-999,0,0.00
2013-4-20,65.5,56.8,47.5,63.7,40.5,32.0,94,57,33,29.96,29.54,0,-999,0,0.00
2013-4-21,64.4,52.8,41.7,39.2,36.1,32.2,84,56,35,30.13,29.93,0,-999,0,0.00
2013-4-22,64.4,51.5,39.6,43.2,34.8,26.4,74,54,34,30.13,29.93,0,-999,0,0.00
2013-4-23,66.6,55.7,48.4,47.7,44.7,42.3,85,68,44,29.93,29.81,0,-999,0,0.00
2013-4-24,77.7,63.4,48.7,54.5,50.0,44.8,94,65,39,29.84,29.66,0,-999,0,0.00
2013-4-25,72.0,62.5,51.8,54.0,43.1,36.3,75,51,33,29.96,29.69,0,-999,0,0.00
2013-4-26,74.5,60.3,50.9,49.5,41.4,32.9,87,55,24,30.07,29.93,0,-999,0,0.00
2013-4-27,75.9,63.2,53.1,49.6,42.2,37.9,69,48,28,30.04,29.93,0,-999,0,0.00
2013-4-28,61.7,58.6,56.3,54.5,47.6,38.7,92,68,49,29.96,29.78,0,-999,0,0.00
2013-4-29,71.6,63.0,55.6,63.0,58.7,53.6,97,87,66,29.78,29.66,0,-999,0,0.00
2013-4-30,66.7,61.7,56.7,60.1,57.7,52.9,95,87,73,29.87,29.69,0,-999,0,0.00
2013-5-1,61.7,59.2,56.7,57.6,55.8,53.8,92,89,81,29.99,29.84,0,-999,0,0.00
2013-5-2,63.5,59.5,55.8,56.3,54.6,51.3,91,84,74,30.01,29.93,0,-999,0,0.00
2013-5-3,70.2,59.0,49.8,55.0,47.4,38.1,93,68,40,29.96,29.84,0,-999,0,0.00
2013-5-4,66.6,56.9,50.4,48.7,45.4,39.0,80,66,49,29.90,29.75,0,-999,0,0.00
2013-5-5,60.3,56.2,50.7,54.1,49.4,43.9,84,78,68,29.78,29.66,0,-999,0,0.00
2013-5-6,66.7,60.6,56.8,64.0,58.5,53.2,96,93,83,29.69,29.51,0,-999,0,0.00
2013-5-7,71.4,60.5,50.7,60.3,51.1,43.9,98,74,40,29.63,29.54,0,-999,0,0.00
2013-5-8,72.3,62.1,53.8,57.9,54.1,48.9,94,77,51,29.69,29.60,0,-999,0,0.00
2013-5-9,79.7,66.5,56.1,61.3,55.6,51.8,97,72,41,29.78,29.66,0,-999,0,0.00
2013-5-10,87.1,71.9,56.7,60.4,55.9,51.6,91,61,33,29.78,29.66,0,-999,0,0.00
2013-5-11,83.7,73.4,67.8,62.8,58.9,55.2,79,62,41,29.69,29.51,0,-999,0,0.00
2013-5-12,75.7,67.2,57.0,60.6,48.6,32.9,83,54,32,29.75,29.51,0,-999,0,0.00
2013-5-13,69.3,57.7,46.8,38.8,34.8,30.9,68,44,26,29.84,29.72,0,-999,0,0.00
2013-5-14,72.0,57.9,41.0,41.4,36.8,32.2,81,49,28,29.90,29.75,0,-999,0,0.00
2013-5-15,87.8,71.2,57.0,57.9,49.9,37.0,68,48,32,29.78,29.63,0,-999,0,0.00
2013-5-16,86.2,75.5,66.6,60.8,56.9,51.6,72,54,33,29.69,29.60,0,-999,0,0.00
2013-5-17,88.3,74.9,63.0,64.0,58.9,54.3,87,61,34,29.81,29.69,0,-999,0,0.00
2013-5-18,78.1,70.2,63.9,67.6,62.7,59.4,91,78,56,29.87,29.78,0,-999,0,0.00
2013-5-19,79.0,70.4,65.8,69.6,65.3,62.4,96,85,60,29.87,29.78,0,-999,0,0.00
2013-5-20,75.2,69.8,67.3,70.9,67.5,63.7,96,92,80,29.84,29.75,0,-999,0,0.00
2013-5-21,84.7,73.7,68.7,71.1,67.5,64.8,94,82,58,29.78,29.69,0,-999,0,0.00
2013-5-22,85.5,75.0,68.5,68.4,65.2,61.3,91,73,50,29.75,29.66,0,-999,0,0.00
2013-5-23,82.8,74.1,70.0,67.5,65.6,62.4,88,76,54,29.66,29.54,0,-999,0,0.00
2013-5-24,73.8,66.3,54.5,66.2,51.4,36.7,91,62,34,29.87,29.51,0,-999,0,0.00
2013-5-25,74.1,59.1,43.7,45.1,39.7,35.8,82,52,27,29.93,29.84,0,-999,0,0.00
2013-5-26,74.3,61.0,48.6,47.8,43.9,37.8,81,57,32,29.96,29.87,0,-999,0,0.00
2013-5-27,82.2,66.8,51.1,54.0,48.4,45.0,87,56,30,29.96,29.87,0,-999,0,0.00
2013-5-28,85.3,73.8,64.2,63.0,58.8,50.4,83,61,44,29.96,29.87,0,-999,0,0.00
2013-5-29,86.7,75.3,64.6,63.0,59.5,56.5,86,60,40,29.99,29.90,0,-999,0,0.00
2013-5-30,87.6,75.7,64.2,65.1,60.3,55.4,87,61,34,30.01,29.93,0,-999,0,0.00
2013-5-31,88.0,77.5,66.9,66.7,62.6,58.6,88,63,39,29.99,29.87,0,-999,0,0.00
2013-6-1,86.4,80.4,75.2,62.8,59.2,56.8,63,49,38,29.81,29.75,0,-999,0,0.00
2013-6-2,87.1,77.5,68.7,66.0,63.0,59.0,87,63,41,29.78,29.63,0,-999,0,0.00
2013-6-3,80.4,73.2,67.3,73.6,68.3,60.6,94,85,66,29.69,29.57,0,-999,0,0.00
2013-6-4,79.2,70.3,64.8,67.3,63.1,59.4,96,79,55,29.81,29.63,0,-999,0,0.00
2013-6-5,81.9,72.5,64.8,61.7,56.7,50.7,86,60,36,29.84,29.75,0,-999,0,0.00
2013-6-6,76.8,71.1,66.6,70.9,64.0,52.9,94,79,50,29.75,29.57,0,-999,0,0.00
2013-6-7,74.1,70.3,68.9,72.9,69.0,67.5,97,96,94,29.57,29.25,0,-999,0,0.00
2013-6-8,82.8,73.0,68.2,71.2,67.6,65.5,97,85,60,29.81,29.51,0,-999,0,0.00
2013-6-9,87.4,75.9,67.3,72.3,67.7,63.7,96,78,52,29.87,29.78,0,-999,0,0.00
2013-6-10,83.3,74.8,71.6,77.2,70.7,66.9,93,87,69,29.81,29.63,0,-999,0,0.00
2013-6-11,85.5,76.1,70.2,68.2,64.9,60.1,91,70,46,29.69,29.63,0,-999,0,0.00
2013-6-12,89.2,77.7,65.5,70.5,66.7,61.9,92,70,48,29.69,29.57,0,-999,0,0.00
2013-6-13,95.7,80.2,68.5,73.8,68.1,52.2,88,70,32,29.57,29.36,0,-999,0,0.00
2013-6-14,80.6,70.6,61.0,65.8,57.1,51.6,89,65,41,29.72,29.45,0,-999,0,0.00
2013-6-15,81.0,66.3,59.2,61.5,57.0,54.9,91,74,41,29.81,29.72,0,-999,0,0.00
2013-6-16,87.8,76.5,65.5,65.1,58.8,49.6,67,55,43,29.84,29.75,0,-999,0,0.00
2013-6-17,86.2,77.0,71.2,70.3,64.7,61.0,77,66,52,29.75,29.66,0,-999,0,0.00
2013-6-18,84.0,74.6,70.3,70.7,67.7,65.5,92,80,59,29.69,29.51,0,-999,0,0.00
2013-6-19,80.6,72.5,66.2,68.2,64.7,61.9,95,78,57,29.81,29.57,0,-999,0,0.00
2013-6-20,84.0,72.9,65.3,63.9,59.8,52.7,90,66,41,29.96,29.81,0,-999,0,0.00
2013-6-21,84.0,71.8,59.0,61.3,55.0,50.2,82,57,34,29.96,29.90,0,-999,0,0.00
2013-6-22,81.7,74.0,70.2,69.4,66.0,61.3,86,77,65,29.93,29.84,0,-999,0,0.00
2013-6-23,86.0,76.0,69.4,71.8,68.4,65.5,93,78,54,29.93,29.84,0,-999,0,0.00
2013-6-24,87.3,78.0,72.1,72.5,69.9,67.1,92,77,56,29.93,29.81,0,-999,0,0.00
2013-6-25,89.4,76.4,70.5,77.2,68.5,65.3,90,77,56,29.84,29.75,0,-999,0,0.00
2013-6-26,90.5,76.6,69.3,73.6,68.5,61.2,93,77,49,29.75,29.63,0,-999,0,0.00
2013-6-27,88.2,76.7,67.8,74.5,69.8,65.5,95,81,57,29.63,29.48,0,-999,0,0.00
2013-6-28,91.4,78.7,70.9,72.7,69.3,62.4,91,75,46,29.48,29.36,0,-999,0,0.00
2013-6-29,83.8,75.5,68.7,72.9,69.6,66.6,95,83,63,29.45,29.34,0,-999,0,0.00
2013-6-30,87.1,76.1,70.9,73.8,70.1,64.2,94,82,59,29.60,29.42,0,-999,0,0.00
2013-7-1,80.1,74.5,70.0,74.1,70.7,68.2,96,88,77,29.72,29.57,0,-999,0,0.00
2013-7-2,76.3,73.5,71.4,72.3,71.0,68.9,96,92,86,29.90,29.69,0,-999,0,0.00
2013-7-3,86.9,77.1,73.0,75.9,72.1,66.9,96,85,62,29.99,29.84,0,-999,0,0.00
2013-7-4,88.9,80.0,73.6,73.2,69.5,61.9,92,73,44,30.01,29.93,0,-999,0,0.00
2013-7-5,90.7,80.7,73.0,73.0,69.6,65.8,90,71,46,30.04,29.93,0,-999,0,0.00
2013-7-6,87.1,79.1,73.2,73.4,70.0,65.3,89,74,58,30.01,29.87,0,-999,0,0.00
2013-7-7,89.1,79.5,71.4,72.5,69.1,65.1,89,72,53,29.90,29.81,0,-999,0,0.00
2013-7-8,89.1,79.4,73.4,72.9,69.8,65.3,88,73,50,29.90,29.81,0,-999,0,0.00
2013-7-9,88.7,77.3,73.0,75.6,70.5,63.3,92,80,54,29.90,29.81,0,-999,0,0.00
2013-7-10,88.3,78.2,73.2,74.7,71.2,68.0,91,80,58,29.81,29.69,0,-999,0,0.00
2013-7-11,82.6,74.9,72.1,73.8,71.2,70.0,94,88,69,29.69,29.60,0,-999,0,0.00
2013-7-12,76.1,72.7,71.2,72.3,70.1,68.2,96,92,82,29.75,29.57,0,-999,0,0.00
2013-7-13,77.4,73.3,70.9,75.4,71.2,68.2,95,93,90,29.90,29.72,0,-999,0,0.00
2013-7-14,88.7,77.7,70.2,74.7,70.5,67.8,96,80,52,30.01,29.87,0,-999,0,0.00
2013-7-15,89.2,77.8,70.0,74.1,69.7,66.7,95,78,51,30.04,29.96,0,-999,0,0.00
2013-7-16,93.0,79.8,69.4,72.9,69.1,63.1,94,72,45,29.99,29.90,0,-999,0,0.00
2013-7-17,92.8,82.1,74.8,76.8,70.9,67.3,92,71,47,29.96,29.84,0,-999,0,0.00
2013-7-18,92.5,82.0,75.2,76.5,72.4,67.8,90,74,46,29.87,29.78,0,-999,0,0.00
2013-7-19,91.6,82.2,75.6,74.7,71.1,65.7,90,71,51,29.84,29.72,0,-999,0,0.00
2013-7-20,89.6,79.5,74.8,73.4,70.9,68.2,90,76,52,29.75,29.66,0,-999,0,0.00
2013-7-21,88.3,78.3,73.2,73.8,70.6,68.5,89,78,56,29.72,29.66,0,-999,0,0.00
2013-7-22,87.3,78.5,72.0,73.2,70.5,68.4,93,78,56,29.69,29.57,0,-999,0,0.00
2013-7-23,90.0,81.0,74.8,71.4,69.1,65.8,86,69,47,29.57,29.48,0,-999,0,0.00
2013-7-24,91.9,80.9,71.2,70.9,67.2,61.3,90,65,39,29.57,29.45,0,-999,0,0.00
2013-7-25,77.9,73.3,69.1,69.8,66.6,63.7,90,80,67,29.75,29.54,0,-999,0,0.00
2013-7-26,87.1,73.9,63.3,65.1,61.4,57.0,93,68,39,29.84,29.72,0,-999,0,0.00
2013-7-27,89.2,75.0,68.2,69.6,65.2,60.3,91,74,40,29.78,29.66,0,-999,0,0.00
2013-7-28,87.6,77.2,69.6,72.5,67.8,62.8,94,75,46,29.72,29.63,0,-999,0,0.00
2013-7-29,84.9,75.8,70.0,69.8,65.7,60.1,93,73,47,29.87,29.69,0,-999,0,0.00
2013-7-30,86.4,74.5,63.9,65.3,62.1,59.0,88,67,44,29.93,29.84,0,-999,0,0.00
2013-7-31,83.1,76.8,71.1,72.3,67.7,65.1,90,74,59,29.87,29.72,0,-999,0,0.00
2013-8-1,84.0,74.7,70.5,72.5,69.3,65.7,94,84,61,29.75,29.60,0,-999,0,0.00
2013-8-2,86.9,76.3,67.8,70.7,67.4,64.6,95,76,50,29.75,29.63,0,-999,0,0.00
2013-8-3,89.1,78.6,72.5,74.3,70.6,64.6,92,78,46,29.75,29.66,0,-999,0,0.00
2013-8-4,82.8,74.8,68.0,72.1,65.6,55.2,95,75,46,29.75,29.60,0,-999,0,0.00
2013-8-5,83.5,73.7,65.7,64.9,60.5,54.0,91,66,41,29.81,29.72,0,-999,0,0.00
2013-8-6,83.1,74.6,67.8,68.9,63.1,59.0,90,68,49,29.81,29.69,0,-999,0,0.00
2013-8-7,87.1,77.2,69.4,68.0,65.0,60.8,86,68,45,29.81,29.75,0,-999,0,0.00
2013-8-8,89.2,79.7,71.6,70.9,67.2,63.9,88,67,46,29.81,29.72,0,-999,0,0.00
2013-8-9,91.4,81.8,74.8,73.4,69.9,66.9,87,69,47,29.78,29.72,0,-999,0,0.00
2013-8-10,95.0,80.7,73.8,75.2,70.9,64.9,89,74,44,29.84,29.75,0,-999,0,0.00
2013-8-11,92.7,80.8,72.0,73.9,70.3,67.1,93,73,45,29.84,29.75,0,-999,0,0.00
2013-8-12,92.8,81.8,74.3,74.1,69.6,63.7,91,69,39,29.78,29.66,0,-999,0,0.00
2013-8-13,88.7,78.2,71.2,75.4,71.1,67.6,93,80,59,29.69,29.54,0,-999,0,0.00
2013-8-14,75.7,72.3,63.9,71.2,63.4,56.3,89,74,63,29.81,29.54,0,-999,0,0.00
2013-8-15,78.6,66.8,60.1,59.5,55.1,50.9,85,68,42,29.87,29.78,0,-999,0,0.00
2013-8-16,69.3,65.3,59.7,59.7,57.6,56.3,91,77,64,29.87,29.78,0,-999,0,0.00
2013-8-17,70.9,67.4,64.2,69.1,64.1,58.6,95,89,80,29.87,29.81,0,-999,0,0.00
2013-8-18,81.5,73.1,69.3,70.5,67.3,63.3,95,83,63,29.90,29.81,0,-999,0,0.00
2013-8-19,73.0,69.9,67.3,70.5,67.1,62.8,95,91,82,29.90,29.81,0,-999,0,0.00
2013-8-20,82.2,74.3,69.1,72.0,69.6,67.6,96,86,67,29.90,29.81,0,-999,0,0.00
2013-8-21,90.0,76.4,70.7,73.9,70.1,65.3,94,82,51,29.93,29.84,0,-999,0,0.00
2013-8-22,89.2,78.2,70.2,74.3,68.3,61.3,95,74,42,29.87,29.72,0,-999,0,0.00
2013-8-23,87.6,76.8,68.7,71.6,67.5,63.7,91,75,52,29.78,29.66,0,-999,0,0.00
2013-8-24,84.4,73.2,66.4,63.9,58.0,50.2,83,62,34,30.01,29.78,0,-999,0,0.00
2013-8-25,80.6,69.6,61.0,62.8,55.5,49.1,90,64,37,30.10,29.99,0,-999,0,0.00
2013-8-26,85.6,69.4,56.1,59.9,53.3,47.8,90,61,31,30.01,29.84,0,-999,0,0.00
2013-8-27,88.9,75.2,64.2,67.1,60.9,54.1,77,62,41,29.84,29.69,0,-999,0,0.00
2013-8-28,82.0,77.0,70.7,71.6,69.4,66.9,90,78,66,29.72,29.63,0,-999,0,0.00
2013-8-29,87.3,79.4,73.2,71.1,68.7,64.9,83,71,51,29.78,29.60,0,-999,0,0.00
2013-8-30,90.0,76.8,66.6,66.9,62.7,55.8,91,65,33,29.81,29.72,0,-999,0,0.00
2013-8-31,91.0,78.2,68.0,70.2,64.7,60.8,91,66,40,29.75,29.63,0,-999,0,0.00
2013-9-1,91.4,78.8,71.4,73.0,68.6,63.9,91,73,42,29.69,29.54,0,-999,0,0.00
2013-9-2,87.8,77.5,70.2,73.2,69.8,67.8,94,79,55,29.66,29.57,0,-999,0,0.00
2013-9-3,88.0,79.0,73.0,73.6,70.1,65.3,91,75,55,29.72,29.57,0,-999,0,0.00
2013-9-4,86.0,76.0,68.4,69.3,66.0,61.5,89,72,52,29.84,29.72,0,-999,0,0.00
2013-9-5,88.9,75.8,67.3,68.2,61.4,51.8,92,65,31,29.87,29.78,0,-999,0,0.00
2013-9-6,84.6,72.0,64.4,61.7,57.2,52.3,82,62,40,29.93,29.84,0,-999,0,0.00
2013-9-7,84.7,71.5,60.6,60.8,57.7,52.9,89,65,37,29.90,29.72,0,-999,0,0.00
2013-9-8,88.7,74.8,64.8,63.3,58.6,52.3,85,61,31,29.72,29.63,0,-999,0,0.00
2013-9-9,90.3,76.2,65.8,67.3,62.4,59.2,90,65,37,29.87,29.69,0,-999,0,0.00
2013-9-10,92.7,78.8,68.2,69.6,63.7,58.3,91,63,33,29.96,29.84,0,-999,0,0.00
2013-9-11,91.8,78.0,67.6,66.6,62.8,58.1,87,62,38,29.93,29.78,0,-999,0,0.00
2013-9-12,92.5,78.8,71.1,68.0,64.8,62.6,81,64,40,29.78,29.51,0,-999,0,0.00
2013-9-13,87.6,76.0,69.1,66.9,58.8,47.5,85,59,34,29.60,29.48,0,-999,0,0.00
2013-9-14,78.6,68.2,60.3,49.8,46.2,43.2,68,46,32,29.87,29.60,0,-999,0,0.00
2013-9-15,83.8,67.8,55.8,57.7,52.4,47.7,83,60,34,29.93,29.84,0,-999,0,0.00
2013-9-16,84.2,73.6,67.3,71.4,61.5,53.1,93,68,42,29.90,29.78,0,-999,0,0.00
2013-9-17,79.0,68.4,61.7,55.9,49.8,43.5,73,54,32,30.01,29.90,0,-999,0,0.00
2013-9-18,75.4,62.4,52.2,51.1,47.1,43.0,83,60,34,29.99,29.87,0,-999,0,0.00
2013-9-19,74.7,69.7,66.4,58.3,55.7,53.1,74,62,48,29.81,29.78,0,-999,0,0.00
2013-9-20,68.4,66.7,63.7,64.6,61.1,55.9,91,83,68,29.81,29.69,0,-999,0,0.00
2013-9-21,77.7,70.1,65.7,69.1,65.9,63.1,94,87,70,29.69,29.45,0,-999,0,0.00
2013-9-22,77.0,67.9,60.1,65.5,59.0,52.3,95,76,45,29.60,29.42,0,-999,0,0.00
2013-9-23,73.2,62.4,54.7,55.0,50.7,46.2,87,68,42,29.78,29.60,0,-999,0,0.00
2013-9-24,75.7,62.9,54.5,56.5,52.8,49.6,91,72,44,29.81,29.66,0,-999,0,0.00
2013-9-25,74.7,63.1,54.1,59.9,55.3,50.7,93,77,51,29.66,29.57,0,-999,0,0.00
2013-9-26,77.2,66.1,58.6,59.9,54.9,48.2,91,70,40,29.72,29.57,0,-999,0,0.00
2013-9-27,74.1,62.8,54.7,59.7,53.2,50.7,92,73,47,29.87,29.72,0,-999,0,0.00
2013-9-28,71.8,61.5,52.0,56.3,51.2,48.0,92,71,47,29.93,29.84,0,-999,0,0.00
2013-9-29,73.9,61.6,52.3,57.7,50.5,47.1,92,70,41,29.87,29.72,0,-999,0,0.00
2013-9-30,75.9,61.7,52.5,59.2,51.6,47.8,92,72,41,29.78,29.72,0,-999,0,0.00
2013-10-1,81.1,65.1,52.5,59.7,54.0,48.6,93,70,39,29.81,29.72,0,-999,0,0.00
2013-10-2,83.5,68.6,58.3,61.7,56.4,51.6,92,69,37,29.84,29.78,0,-999,0,0.00
2013-10-3,85.8,70.5,59.7,64.2,58.2,52.9,92,68,36,29.84,29.78,0,-999,0,0.00
2013-10-4,86.9,72.8,63.3,64.8,59.8,56.1,89,66,39,29.84,29.78,0,-999,0,0.00
2013-10-5,89.6,73.6,62.1,66.9,60.6,56.8,91,67,36,29.84,29.78,0,-999,0,0.00
2013-10-6,84.0,73.9,66.7,69.1,64.9,60.6,92,75,48,29.81,29.69,0,-999,0,0.00
2013-10-7,73.2,71.0,65.1,70.9,68.0,61.7,94,90,83,29.75,29.60,0,-999,0,0.00
2013-10-8,64.9,60.6,59.2,61.3,47.8,43.0,88,63,54,29.90,29.72,0,-999,0,0.00
2013-10-9,62.2,58.9,55.4,54.1,50.5,46.6,92,74,63,29.90,29.78,0,-999,0,0.00
2013-10-10,61.0,57.3,54.3,58.8,55.2,51.6,95,93,88,29.78,29.63,0,-999,0,0.00
2013-10-11,66.6,62.2,59.2,61.7,59.4,57.6,95,91,80,29.69,29.60,0,-999,0,0.00
2013-10-12,67.1,64.2,61.2,63.7,61.3,58.8,93,91,86,29.78,29.66,0,-999,0,0.00
2013-10-13,66.9,64.3,62.4,62.8,61.5,60.4,95,91,85,29.90,29.78,0,-999,0,0.00
2013-10-14,64.8,62.2,57.7,62.2,59.9,55.4,96,92,85,29.93,29.87,0,-999,0,0.00
2013-10-15,71.2,62.2,54.7,59.2,56.5,53.1,95,82,58,29.87,29.75,0,-999,0,0.00
2013-10-16,67.8,64.6,61.5,62.2,60.1,58.1,93,86,75,29.78,29.66,0,-999,0,0.00
2013-10-17,75.0,67.1,61.0,62.1,60.3,57.9,94,80,59,29.66,29.57,0,-999,0,0.00
2013-10-18,67.3,62.9,57.9,62.4,51.5,42.8,92,68,44,29.75,29.57,0,-999,0,0.00
2013-10-19,68.9,63.6,60.1,62.4,57.9,52.3,90,82,73,29.69,29.54,0,-999,0,0.00
2013-10-20,65.7,56.3,46.0,57.7,44.6,37.4,92,68,37,29.81,29.60,0,-999,0,0.00
2013-10-21,68.5,53.3,40.1,52.0,42.2,36.1,93,69,35,29.84,29.69,0,-999,0,0.00
2013-10-22,63.0,57.9,52.5,56.5,51.8,46.4,90,80,74,29.69,29.51,0,-999,0,0.00
2013-10-23,68.5,59.8,49.8,57.7,46.4,29.1,94,66,33,29.69,29.39,0,-999,0,0.00
2013-10-24,61.0,48.4,37.2,34.9,31.1,28.0,73,52,35,29.84,29.69,0,-999,0,0.00
2013-10-25,58.1,47.5,36.7,34.7,27.9,23.2,65,47,32,30.01,29.84,0,-999,0,0.00
2013-10-26,59.9,47.8,31.5,31.5,28.3,24.3,76,49,31,30.01,29.75,0,-999,0,0.00
2013-10-27,69.1,53.9,41.2,40.3,36.0,30.0,75,53,33,29.81,29.72,0,-999,0,0.00
2013-10-28,67.1,54.8,44.6,50.7,46.3,38.5,86,74,52,29.93,29.81,0,-999,0,0.00
2013-10-29,72.9,59.1,50.7,55.9,50.2,47.3,93,75,44,29.99,29.90,0,-999,0,0.00
2013-10-30,73.0,61.7,53.1,58.6,53.0,48.6,95,75,46,29.99,29.84,0,-999,0,0.00
2013-10-31,74.3,65.5,56.7,60.3,53.6,48.0,91,67,45,29.90,29.66,0,-999,0,0.00
2013-11-1,73.2,68.2,61.7,64.9,62.5,57.7,95,83,65,29.66,29.42,0,-999,0,0.00
2013-11-2,71.1,61.4,51.8,58.1,50.3,39.6,95,70,38,29.63,29.42,0,-999,0,0.00
2013-11-3,64.2,51.0,42.3,40.3,36.1,32.7,79,59,35,30.04,29.63,0,-999,0,0.00
2013-11-4,58.3,45.5,36.1,36.1,30.6,26.1,80,58,36,30.19,30.01,0,-999,0,0.00
2013-11-5,58.5,48.9,38.7,46.0,37.9,27.9,77,66,52,30.22,30.07,0,-999,0,0.00
2013-11-6,72.1,56.9,45.5,52.9,47.5,41.5,87,73,43,30.07,29.81,0,-999,0,0.00
2013-11-7,68.5,60.1,46.0,62.2,51.6,29.3,95,75,41,29.81,29.63,0,-999,0,0.00
2013-11-8,60.1,46.1,34.5,31.5,26.8,22.5,70,48,30,29.99,29.78,0,-999,0,0.00
2013-11-9,61.2,45.2,30.9,35.1,28.5,24.8,84,55,30,30.07,29.87,0,-999,0,0.00
2013-11-10,72.9,53.2,38.3,40.1,32.7,27.3,77,48,25,29.90,29.75,0,-999,0,0.00
2013-11-11,60.8,46.2,33.3,31.1,26.3,21.6,71,47,29,30.04,29.81,0,-999,0,0.00
2013-11-12,62.6,43.9,35.8,36.5,29.2,15.1,76,58,34,30.07,29.69,0,-999,0,0.00
2013-11-13,47.3,35.3,26.8,21.2,15.1,11.8,61,44,31,30.19,30.04,0,-999,0,0.00
2013-11-14,57.9,39.2,25.0,25.0,19.5,15.3,73,48,26,30.13,29.99,0,-999,0,0.00
2013-11-15,59.7,45.9,30.4,42.6,30.8,18.5,79,57,36,30.01,29.87,0,-999,0,0.00
2013-11-16,71.2,56.7,48.9,56.3,49.3,43.0,89,77,52,29.96,29.87,0,-999,0,0.00
2013-11-17,71.2,61.7,52.9,65.5,55.8,49.6,96,82,55,29.90,29.60,0,-999,0,0.00
2013-11-18,75.9,66.2,55.4,65.8,51.2,28.0,94,62,35,29.66,29.51,0,-999,0,0.00
2013-11-19,58.8,49.8,42.8,29.1,24.8,22.3,46,38,30,29.99,29.66,0,-999,0,0.00
2013-11-20,56.1,45.6,38.3,32.4,26.1,21.0,64,47,36,30.10,29.96,0,-999,0,0.00
2013-11-21,61.2,50.4,41.9,42.6,37.7,31.3,74,62,47,30.16,30.04,0,-999,0,0.00
2013-11-22,70.2,58.8,46.9,58.1,49.7,40.6,88,72,58,30.04,29.78,0,-999,0,0.00
2013-11-23,61.7,55.6,43.5,58.8,42.6,20.3,94,64,38,29.84,29.72,0,-999,0,0.00
2013-11-24,43.5,34.2,25.2,20.1,9.1,2.5,43,35,29,30.19,29.84,0,-999,0,0.00
2013-11-25,45.0,31.9,20.3,14.7,10.0,5.7,64,41,28,30.25,30.04,0,-999,0,0.00
2013-11-26,66.2,46.8,36.9,64.8,34.2,11.8,97,65,35,30.04,29.28,0,-999,0,0.00
2013-11-27,54.5,41.1,30.9,49.1,35.0,14.5,94,80,50,29.84,29.19,0,-999,0,0.00
2013-11-28,45.5,33.0,23.7,22.1,16.6,11.7,68,51,36,30.13,29.81,0,-999,0,0.00
2013-11-29,53.1,35.9,25.0,28.4,21.6,18.7,82,58,34,30.28,30.10,0,-999,0,0.00
2013-11-30,49.3,36.6,27.1,28.9,23.7,18.5,77,60,42,30.31,30.01,0,-999,0,0.00
2013-12-1,58.3,42.0,28.4,36.3,29.4,23.4,86,64,35,30.01,29.69,0,-999,0,0.00
2013-12-2,61.2,46.0,38.1,42.6,36.3,32.7,85,70,44,29.69,29.48,0,-999,0,0.00
2013-12-3,57.7,46.8,33.4,43.9,37.3,30.0,92,71,48,29.66,29.54,0,-999,0,0.00
2013-12-4,64.2,57.2,52.0,54.5,49.9,42.1,92,77,62,29.78,29.66,0,-999,0,0.00
2013-12-5,66.4,60.9,52.7,63.0,58.3,50.2,98,91,81,29.81,29.72,0,-999,0,0.00
2013-12-6,78.3,70.4,65.3,63.3,59.5,55.2,90,70,46,29.78,29.69,0,-999,0,0.00
2013-12-7,69.1,50.5,43.3,62.1,41.9,27.1,90,73,53,30.10,29.72,0,-999,0,0.00
2013-12-8,43.3,36.8,34.5,32.5,29.3,23.0,90,76,49,30.10,29.96,0,-999,0,0.00
2013-12-9,46.2,40.2,35.1,45.5,38.9,32.4,97,95,90,29.96,29.72,0,-999,0,0.00
2013-12-10,47.5,43.9,29.8,46.6,40.5,24.4,97,88,63,29.99,29.60,0,-999,0,0.00
2013-12-11,49.6,35.7,24.8,30.4,23.9,20.7,90,65,37,30.10,29.93,0,-999,0,0.00
2013-12-12,48.0,34.5,27.0,24.8,19.2,13.8,81,56,31,30.07,29.93,0,-999,0,0.00
2013-12-13,51.6,35.7,23.0,27.1,19.8,15.8,78,55,29,30.07,29.93,0,-999,0,0.00
2013-12-14,47.7,41.9,38.3,40.3,32.5,21.9,91,71,40,29.96,29.45,0,-999,0,0.00
2013-12-15,54.9,44.0,33.8,45.3,34.4,22.6,95,72,43,29.75,29.39,0,-999,0,0.00
2013-12-16,54.9,40.9,28.6,33.6,27.8,23.0,85,62,37,29.84,29.72,0,-999,0,0.00
2013-12-17,59.9,48.5,34.9,34.0,30.8,28.4,83,53,35,29.81,29.54,0,-999,0,0.00
2013-12-18,50.7,40.8,30.4,30.9,19.4,16.0,61,43,29,29.96,29.69,0,-999,0,0.00
2013-12-19,61.0,45.3,29.8,28.9,22.5,17.6,65,43,25,30.01,29.87,0,-999,0,0.00
2013-12-20,66.2,54.4,43.0,49.3,39.8,25.0,78,58,39,29.93,29.78,0,-999,0,0.00
2013-12-21,72.9,61.4,50.4,63.9,52.8,43.3,86,74,53,29.84,29.75,0,-999,0,0.00
2013-12-22,77.9,70.7,64.6,64.2,61.4,55.4,93,74,50,29.84,29.72,0,-999,0,0.00
2013-12-23,67.6,61.1,47.3,66.2,58.6,36.9,97,92,67,29.84,29.69,0,-999,0,0.00
2013-12-24,47.7,42.3,30.9,38.5,25.6,10.0,74,52,39,30.10,29.81,0,-999,0,0.00
2013-12-25,42.1,31.0,25.0,15.1,10.2,7.9,56,42,31,30.19,30.04,0,-999,0,0.00
2013-12-26,49.8,36.4,26.1,30.6,24.1,12.6,79,62,40,30.04,29.90,0,-999,0,0.00
2013-12-27,53.6,36.2,25.7,29.8,22.2,18.9,84,60,31,30.10,29.99,0,-999,0,0.00
2013-12-28,59.2,41.2,25.7,34.3,25.7,19.4,83,57,27,30.07,29.84,0,-999,0,0.00
2013-12-29,62.6,49.4,43.7,62.1,45.7,32.5,98,87,58,29.84,29.36,0,-999,0,0.00
2013-12-30,54.3,44.9,35.4,47.8,38.4,32.9,98,79,55,29.81,29.60,0,-999,0,0.00
2013-12-31,51.1,42.5,32.5,35.2,27.5,21.4,78,57,33,30.01,29.78,0,-999,0,0.00
2014-1-1,54.9,39.8,31.1,29.8,24.8,20.3,81,58,30,30.07,29.81,0,-999,0,0.00
2014-1-2,48.7,43.8,38.1,43.9,36.0,27.7,91,74,57,29.81,29.28,0,-999,0,0.00